FENGYUN 1C DEB, 30505

Orbit data source: Space-Track

FENGYUN 1C DEB, 30505 is space debris in SSO originally from a launch on Mon, 10 May 1999 UTC launched from the Taiyaun Space Center, China (TSC). Fengyun 1C debris stems from the Chinese weather satellite Fengyun-1C, which was intentionally destroyed by a Chinese anti-satellite missile in 2007. This event dramatically increased the amount of space debris, with thousands of trackable fragments posing hazards to satellites and human spaceflight. The Fengyun 1C debris cloud has become a focal point in discussions about space sustainability and the need for international regulations to prevent the creation of new debris.

Loading next visibility...
Identifier
30505, 1999-025AHT
Orbit
SSO
Country
Flag of CNCN / PRC
Related business
Manufacturer
Unknown
Mission
Spacecraft
Bus & Motor
Unknown
Mass
Unknown
Launch date (UTC)
1999-05-10 (27 years ago)
Launch vehicle
Unknown
Launch site
Taiyaun Space Center, China (TSC)
Object type
Payload
Rocket body
Debris
Shape & HBR
Unknown shape, 0.1 m
Radar Cross Section
Small (<0.1 m²)

Expand to show TLE details & history
Last TLE update: 11 hours ago

TLE from 11 hours ago
0 FENGYUN 1C DEB
1 30505U 99025AHT 26072.94999344  .00002779  00000-0  12374-2 0  9990
2 30505  98.9164 158.7176 0060472 341.1628  74.0625 14.22723093982209
Epoch: 2026-03-13T22:47Z
TLE epoch observation values (Epoch: 2026-03-13T22:47:59.433Z)
Latitude
54.98453°
Longitude
-7.7285°
Altitude
813.516 km
Speed
7.458 km/s
True Right ascension
09h 43m 23s
True Declination
54° 49' 26"
Sunlit
Object was in full shadow at epoch
Visualization orbit readout
Latitude
Unknown
Longitude
Unknown
Altitude
Unknown
Speed
Unknown
Apparent Right ascension
Unknown
Apparent Declination
Unknown
Sunlit
N/A
Visualization observer readout
Local Sidereal Time
14:43:24
Azimuth
Unknown
Elevation
Unknown
Doppler factor
Unknown
Orbital elements
Apogee altitude
856.811 km
Perigee altitude
769.835 km
Semi-major axis
7,191.46 km
Eccentricity
0.00605
Inclination
98.9164°
RAAN
158.7176°
Arg. of periapsis
341.1628°
True anomaly
74.73019°
Mean anomaly
74.0625°
Eccentric anomaly
74.39621°
Mean motion
3.55891 °/min
Orbital period
101.15 mins
BSTAR
0.0012374
Loading maneuver chart data...
Computing Atmospheric mass density...

Documentation

Showing up to 5 results
|